Zurück zum Katalog

METEOR 2-11 DEB

LostPO
NORAD 40709·DEBRIS·🇷🇺 Russia

Gestartet Jul 5, 1984 von Plesetsk Cosmodrome

Loading…

Nächste Überflüge (nächste 24 Stunden)

TLE

VeraltetSource: Space-Track

Epoche: Aug 12, 2026, 23:13 UTC

1 40709U 84072L   26224.96765549  .00000966  00000-0  62803-3 0  9991
2 40709  82.5292 311.9166 0011977  51.7675 308.4571 14.01623212851838

Verfolge METEOR 2-11 DEB in Echtzeit mit AllMySat

Download on the App Store